Location: Luxembourg
(49.6117°N, 6.1300°E)
Time: 14:23:30
(UTC+02:00)

ISS - Visible Passes

Search period start: 21 September 2017 00:00
Search period end: 01 October 2017 00:00
Orbit: 402 x 407 km, 51.6° (Epoch: 21 September)

Date Brightness Start Highest point End Pass type
(mag) Time Alt. Az. Time Alt. Az. Time Alt. Az.
25 Sep -1.5 21:18:43 10° SSW 21:19:25 14° SSW 21:19:25 14° SSW visible
26 Sep -2.0 20:27:12 10° S 20:29:18 16° SE 20:29:45 16° SE visible
26 Sep -0.9 22:02:04 10° WSW 22:02:26 13° WSW 22:02:26 13° WSW visible
27 Sep -3.2 21:09:51 10° SW 21:12:33 42° S 21:12:33 42° S visible
28 Sep -2.8 20:17:49 10° SSW 20:20:43 29° SE 20:22:31 18° E visible
28 Sep -1.7 21:53:42 10° WSW 21:55:11 24° W 21:55:11 24° W visible
29 Sep -4.0 21:01:18 10° WSW 21:04:34 78° SSE 21:05:01 62° E visible
30 Sep -3.6 20:08:59 10° SW 20:12:11 53° SSE 20:14:44 15° E visible
30 Sep -2.0 21:45:24 10° W 21:47:23 32° WNW 21:47:23 32° WNW visible
